Home > Weather > Sosnowiec > Past weeks

Flag for Poland Past Weather in Sosnowiec, Poland — Yesterday and Last 2 Weeks

Now
70 °F

Clear.


Feels Like: 70 °F
Forecast: 58 / 71 °F
Wind: 9 mph from Southeast

Location: Katowice Airport

Current Time: Jun 26, 2016 at 4:50:05 AM

Latest Report: Jun 26, 2016 at 4:00 AM


Visibility: 10 mi

Pressure: 29.89 "Hg

Humidity: 69%

Dew Point: 59 °F

Location of SosnowiecLocation

Past Weather in Sosnowiec — Graph

°F

Sosnowiec Temperature Yesterday

Maximum temperature yesterday: 93 °F (at 4:30 PM)
Minimum temperature yesterday: 66 °F (at 2:00 AM)
Average temperature yesterday: 78 °F

High & Low Weather Summary for the Past Weeks

 TemperatureHumidityPressure
High93 °F (Jun 25, 4:30 PM)100% (Jun 12, 2:30 AM)30.30 "Hg (Jun 12, 2:30 AM)
Low41 °F (Jun 12, 2:30 AM)30% (Jun 25, 2:30 PM)29.47 "Hg (Jun 17, 9:00 AM)
Average66 °F69%29.92 "Hg
* Reported Jun 11 3:00 AM — Jun 26 3:30 AM, Sosnowiec, Weather by CustomWeather, © 2016

Note: Actual official high and low records may vary slightly from our data, if they occured in-between our weather recording intervals... More about our weather records

Advertising

Sosnowiec Weather History for the Previous 24 Hours

Scroll right to see more
 ConditionsComfort  
Time TempWeatherWind HumidityBarometerVisibility
3:30 AM
Sun, Jun 26
66 °FClear.7 mph78%29.89 "Hg10 mi
3:00 AM66 °FClear.7 mph78%29.92 "Hg10 mi
2:30 AM68 °FClear.7 mph73%29.92 "Hg10 mi
2:00 AM68 °FClear.8 mph73%29.92 "Hg10 mi
1:30 AM68 °FClear.7 mph78%29.92 "Hg10 mi
1:00 AM68 °FClear.8 mph78%29.92 "Hg10 mi
12:30 AM68 °FClear.8 mph78%29.92 "Hg10 mi
12:00 AM68 °FClear.5 mph78%29.92 "Hg10 mi
11:30 PM
Sat, Jun 25
70 °FClear.6 mph73%29.92 "Hg10 mi
11:00 PM72 °FClear.7 mph69%29.92 "Hg10 mi
10:30 PM73 °FClear.6 mph69%29.92 "Hg10 mi
10:00 PM75 °FClear.3 mph61%29.92 "Hg10 mi
9:30 PM77 °FPassing clouds.3 mph57%29.92 "HgN/A
9:00 PM77 °FPassing clouds.13 mph54%29.92 "HgN/A
8:30 PM81 °FSprinkles. Passing clouds.14 mph42%29.89 "HgN/A
8:00 PM81 °FScattered clouds.13 mph48%29.89 "HgN/A
7:30 PM81 °FScattered clouds.17 mph45%29.89 "HgN/A
7:00 PM86 °FThundershowers. Scattered clouds.14 mph46%29.89 "HgN/A
6:30 PM90 °FScattered clouds.14 mph38%29.89 "HgN/A
6:00 PM91 °FPassing clouds.13 mph34%29.89 "HgN/A
5:30 PM91 °FPassing clouds.13 mph34%29.89 "HgN/A
5:00 PM91 °FPassing clouds.14 mph36%29.89 "HgN/A
4:30 PM93 °FPassing clouds.13 mph34%29.89 "HgN/A
4:00 PM91 °FPassing clouds.10 mph36%29.92 "HgN/A
3:30 PM91 °FPassing clouds.14 mph34%29.92 "HgN/A
3:00 PM91 °FSunny.13 mph32%29.92 "Hg10 mi
2:30 PM91 °FPassing clouds.14 mph30%29.95 "HgN/A
2:00 PM90 °FPassing clouds.12 mph33%29.95 "HgN/A
1:30 PM90 °FPassing clouds.9 mph38%29.98 "HgN/A
1:00 PM88 °FPassing clouds.8 mph40%29.98 "HgN/A
12:30 PM88 °FPassing clouds.8 mph40%29.98 "HgN/A
12:00 PM84 °FPassing clouds.9 mph51%29.98 "HgN/A
11:30 AM84 °FSunny.10 mph48%30.01 "Hg10 mi
11:00 AM82 °FSunny.9 mph51%30.01 "Hg10 mi
10:30 AM79 °FPassing clouds.9 mph58%29.98 "HgN/A
10:00 AM77 °FScattered clouds.9 mph57%29.98 "HgN/A
9:30 AM73 °FScattered clouds.9 mph74%29.98 "HgN/A
9:00 AM73 °FScattered clouds.9 mph74%30.01 "HgN/A
8:30 AM72 °FSprinkles. Scattered clouds.15 mph78%30.01 "HgN/A
8:00 AM73 °FSprinkles. Scattered clouds.9 mph65%30.01 "HgN/A
7:30 AM73 °FThundershowers. Scattered clouds.10 mph69%30.01 "HgN/A
7:00 AM75 °FThundershowers. Passing clouds.12 mph69%30.01 "HgN/A
6:30 AM75 °FSunny.2 mph74%30.01 "Hg10 mi
6:00 AM70 °FSunny.3 mph83%30.01 "Hg10 mi
5:30 AM66 °FClear.3 mph94%30.01 "Hg10 mi
5:00 AM66 °FClear.2 mph88%30.01 "Hg10 mi
4:30 AM68 °FClear.5 mph88%30.01 "Hg10 mi
4:00 AM66 °FClear.5 mph88%30.01 "Hg5 mi
Weather by CustomWeather, © 2016

See weather overviewHow to use our weather pages